User: anonymous   Login
Location: Mentone
(34.5413°N, 85.5351°W)
Time: 23:01:52
(UTC-05:00)
Language:

Uosat F - Orbit

View from above orbital plane
View from above orbital plane
View from above satellite
View from above satellite

Ground track
Ground track

The orbit data is extracted from the following two-line orbital elements,

1 21575U 91050B   16119.89788532  .00000055  00000-0  31613-4 0  9991
2 21575  98.7607 120.2660 0008498  92.8484 267.3677 14.40734026301621
Epoch (UTC): 28 April 2016 21:32:57
Eccentricity: 0.0008498
inclination: 98.7607°
perigee height: 750 km
apogee height: 762 km
right ascension of ascending node: 120.2660°
argument of perigee: 92.8484°
revolutions per day: 14.40734026
mean anomaly at epoch: 267.3677°
orbit number at epoch: 30162

The dashed part of the orbit path shows where the satellite is in the earth's shadow,  

DLR